STARLINK-38157, 100263

Orbit data source: Space-Track

STARLINK-38157, 100263 is a payload satellite owned by SpaceX/Seattle (US) in SSO that was launched on Sat, 08 Aug 2026 UTC launched from the Air Force Western Test Range (AFWTR). Payload-class satellites include a variety of spacecraft equipped with specific instruments for various scientific and technological missions. These include communications satellites like Starlink; space stations such as the ISS; scientific satellites like the Hubble; Earth observation satellites from companies like Planet Labs, Umbra, and HawkEye 360; GPS; miniature CubeSats for education and research; and military/defense satellites.

Not visible in the next 10 days
Identifier
100263, 2026-181T
Orbit
SSO
Country
Flag of USUS
Related business
Manufacturer
SpaceX/Seattle
Mission
Operational spacecraft
Bus & Motor
STARLINK V2MO, Unknown motor
Mass
575 kg wet, ~530 kg dry
Launch date (UTC)
2026-08-08 (1 month ago)
Launch vehicle
Unknown
Launch site
Air Force Western Test Range (AFWTR)
Object type
Payload
Rocket body
Debris
Shape & HBR
BOX + PAN, 17.7 m
Radar Cross Section
RCS unknown

Expand to show TLE details & history
Last TLE update: 6 hours ago

TLE from 6 hours ago
0 STARLINK-38157
1 A0263U 26181T   26249.64297107  .00168318  00000-0  11056-2 0  9990
2 A0263  97.2851 292.6275 0000861  92.9243 267.2121 15.75223589  5780
Epoch: 2026-09-06T15:25Z
TLE epoch observation values (Epoch: 2026-09-06T15:25:52.700Z)
Latitude
Longitude
75.42277°
Altitude
347.192 km
Speed
7.701 km/s
True Right ascension
19h 30m 30s
True Declination
0° 00' 00"
Sunlit
Object was in full shadow at epoch
Visualization orbit readout
Latitude
Unknown
Longitude
Unknown
Altitude
Unknown
Speed
Unknown
Apparent Right ascension
Unknown
Apparent Declination
Unknown
Sunlit
N/A
Visualization observer readout
Local Sidereal Time
13:34:21
Azimuth
Unknown
Elevation
Unknown
Doppler factor
Unknown
Orbital elements
Apogee altitude
341.461 km
Perigee altitude
340.304 km
Semi-major axis
6,719.019 km
Eccentricity
0.00009
Inclination
97.2851°
RAAN
292.6275°
Arg. of periapsis
92.9243°
True anomaly
267.20225°
Mean anomaly
267.2121°
Eccentric anomaly
267.20717°
Mean motion
3.9408 °/min
Orbital period
91.35 mins
BSTAR
0.0011056
Loading maneuver chart data...
Computing Atmospheric mass density...
Loading historical data...
Loading historical data...
Loading historical data...
Loading historical data...
Loading historical data...
Loading historical data...
Loading historical data...

Documentation

Showing up to 5 results
|